Location: Malvern Link
(52.1333°N, 2.3000°W)
Time: 15:09:34
(UTC+00:00)

Cosmos 1634 Rocket - Pass Details

Date: 05 December 2021
Orbit: 959 x 993 km, 82.9° (Epoch: 23 January)

Event Time Altitude Azimuth Distance (km) Brightness Sun altitude
Exits shadow 04:30:31 29° 360° (N) 1,729 5.2 -31.1°
Maximum altitude 04:33:55 71° 77° (ENE) 1,038 4.2 -30.6°
Drops below altitude 10° 04:40:07 10° 162° (SSE) 2,712 6.5 -29.6°
Sets 04:42:38 0° 164° (SSE) 3,650 7.2 -29.2°
